Weather History for Raleigh-Durham Airport, NC

Change the Weather History Date:

Tuesday, April 16, 2013

  Actual Average Record
Temperature  
Mean Temperature 67 °F 60 °F  
Max Temperature 76 °F 73 °F 92 °F (1941)
Min Temperature 58 °F 48 °F 28 °F (1950)
Degree Days  
Heating Degree Days 0 6  
Month to date heating degree days 101 124  
Since 1 July heating degree days 3162 3120  
Cooling Degree Days 2 2  
Month to date cooling degree days 29 19  
Year to date cooling degree days 31 31  
Growing Degree Days 16 (Base 50)    
Moisture  
Dew Point 57 °F    
Average Humidity 77    
Maximum Humidity 100    
Minimum Humidity 53    
Precipitation  
Precipitation 0.00 in 0.09 in 2.64 in (1933)
Month to date precipitation 1.83 1.62  
Year to date precipitation 11.96 12.46  
Snow  
Snow 0.00 in 0.00 in T in (1905)
Month to date snowfall T 0.1  
Since 1 July snowfall 1.7 6.1  
Snow Depth 0.00 in    
Sea Level Pressure  
Sea Level Pressure 30.26 in    
Wind  
Wind Speed 3 mph (SE)    
Max Wind Speed 9 mph    
Max Gust Speed 15 mph    
Visibility 7 miles    
Events Fog    
T = Trace of Precipitation, MM = Missing Value Source: NWS Daily Summary

Daily Weather History Graph

Daily Weather History Graph

Search for Another Location

Airport:

Trip Planner

Search our weather history database for the weather conditions in past years. The results will help you decide how hot, cold, wet, or windy it might be!

Date:

Astronomy

Apr. 16, 2013 Rise Set
Actual Time 6:40 AM EDT 7:49 PM EDT
Civil Twilight 6:14 AM EDT 8:16 PM EDT
Nautical Twilight 5:42 AM EDT 8:47 PM EDT
Astronomical Twilight 5:10 AM EDT 9:20 PM EDT
Moon 11:02 AM EDT (4/16) 12:40 AM EDT (4/16)
Length of Visible Light 14h 02m
Length of Day
13h 09m
Waxing Crescent, 33% of the Moon is Illuminated
Apr 16
Waxing Crescent
Apr 18
First Quarter
Apr 25
Full
May 2
Last Quarter
May 9
New

Hourly Weather History & Observations

Time (EDT) Temp. Dew Point Humidity Pressure Visibility Wind Dir Wind Speed Gust Speed Precip Events Conditions
12:51 AM 62.1 °F 57.0 °F 84% 30.22 in 10.0 mi ENE 3.5 mph - N/A   Mostly Cloudy
1:51 AM 61.0 °F 57.0 °F 87% 30.22 in 10.0 mi East 4.6 mph - N/A   Mostly Cloudy
2:51 AM 59.0 °F 55.9 °F 90% 30.22 in 10.0 mi East 3.5 mph - N/A   Scattered Clouds
3:51 AM 59.0 °F 55.9 °F 90% 30.22 in 9.0 mi East 4.6 mph - N/A   Scattered Clouds
4:51 AM 57.9 °F 55.9 °F 93% 30.22 in 7.0 mi East 4.6 mph - N/A   Mostly Cloudy
5:51 AM 57.9 °F 55.9 °F 93% 30.23 in 6.0 mi Variable 3.5 mph - N/A   Overcast
6:33 AM 59.0 °F 55.4 °F 88% 30.25 in 1.0 mi East 4.6 mph - N/A   Overcast
6:44 AM 59.0 °F 57.2 °F 94% 30.25 in 0.5 mi Calm Calm - N/A Fog Fog
6:51 AM 59.0 °F 57.0 °F 93% 30.25 in 0.5 mi East 3.5 mph - N/A Fog Fog
7:51 AM 57.9 °F 57.0 °F 97% 30.27 in 0.2 mi Calm Calm - N/A Fog Fog
8:51 AM 59.0 °F 57.0 °F 93% 30.29 in 0.5 mi Calm Calm - N/A Fog Fog
9:19 AM 60.8 °F 57.2 °F 88% 30.30 in 1.0 mi Calm Calm - N/A   Overcast
9:32 AM 60.8 °F 57.2 °F 88% 30.30 in 1.5 mi Calm Calm - N/A   Overcast
9:41 AM 60.8 °F 57.2 °F 88% 30.31 in 2.5 mi Calm Calm - N/A   Overcast
9:51 AM 61.0 °F 57.0 °F 87% 30.30 in 2.5 mi Calm Calm - N/A   Overcast
9:58 AM 60.8 °F 57.2 °F 88% 30.31 in 6.0 mi Calm Calm - N/A   Overcast
10:43 AM 62.6 °F 57.2 °F 82% 30.32 in 8.0 mi Calm Calm - N/A   Mostly Cloudy
10:51 AM 63.0 °F 57.0 °F 81% 30.31 in 9.0 mi Calm Calm - N/A   Mostly Cloudy
11:24 AM 64.4 °F 57.2 °F 77% 30.31 in 10.0 mi East 3.5 mph - N/A   Mostly Cloudy
11:51 AM 68.0 °F 57.9 °F 70% 30.31 in 10.0 mi SE 3.5 mph - N/A   Mostly Cloudy
12:51 PM 71.1 °F 57.9 °F 63% 30.30 in 10.0 mi East 4.6 mph - N/A   Mostly Cloudy
1:51 PM 72.0 °F 57.0 °F 59% 30.27 in 10.0 mi Calm Calm - N/A   Mostly Cloudy
2:51 PM 73.9 °F 57.0 °F 55% 30.26 in 10.0 mi Calm Calm - N/A   Mostly Cloudy
3:51 PM 75.0 °F 57.9 °F 55% 30.23 in 10.0 mi SSE 6.9 mph - N/A   Mostly Cloudy
4:51 PM 73.9 °F 55.0 °F 52% 30.21 in 10.0 mi SSE 4.6 mph - N/A   Mostly Cloudy
5:51 PM 73.9 °F 55.0 °F 52% 30.21 in 10.0 mi SSE 4.6 mph - N/A   Scattered Clouds
6:51 PM 73.9 °F 55.0 °F 52% 30.21 in 10.0 mi SSE 5.8 mph - N/A   Scattered Clouds
7:51 PM 71.1 °F 55.0 °F 57% 30.21 in 10.0 mi South 3.5 mph - N/A   Scattered Clouds
8:51 PM 68.0 °F 55.9 °F 65% 30.21 in 10.0 mi South 4.6 mph - N/A   Partly Cloudy
9:51 PM 64.0 °F 55.9 °F 75% 30.22 in 10.0 mi Calm Calm - N/A   Partly Cloudy
10:51 PM 62.1 °F 55.0 °F 78% 30.23 in 10.0 mi Calm Calm - N/A   Partly Cloudy
11:51 PM 61.0 °F 55.0 °F 81% 30.24 in 10.0 mi South 5.8 mph - N/A   Partly Cloudy